Location: Malvern Link
(52.1333°N, 2.3000°W)
Time: 23:55:13
(UTC+00:00)

QB50P2 - Pass Details

Date: 04 July 2022
Orbit: 590 x 605 km, 97.9° (Epoch: 18 August)

Event Time Altitude Azimuth Distance (km) Brightness Sun altitude
Rises 00:34:57 0° 26° (NNE) 2,866 ? -14.8°
Reaches altitude 10° 00:37:39 10° 44° (NE) 1,959 ? -14.8°
Maximum altitude 00:40:46 20° 91° (E) 1,434 ? -14.7°
Enters shadow 00:43:37 11° 136° (SE) 1,881 ? -14.7°
